DW8024 Weather Reports


Display with metric or nautical units.
time (UTC)temp
F
wind
direction
speed
MPH
gust
MPH
rain 1hr
in
rain 24hr
in
rain mn
in
humidity
%
barometer
mb
20180621160954 64 311 11.0 19.0 0.00 0.00 0.00 53 1027.9
20180621160454 64 304 10.0 16.0 0.00 0.00 0.00 52 1027.9
20180621155958 63 294 11.0 21.0 0.00 0.00 0.00 54 1027.8
20180621155454 62 295 13.0 21.0 0.00 0.00 0.00 55 1027.7
20180621154954 63 304 12.0 21.0 0.00 0.00 0.00 53 1027.7
20180621154457 63 301 11.0 21.0 0.00 0.00 0.00 55 1027.9
20180621153953 62 296 11.0 19.0 0.00 0.00 0.00 53 1027.8
20180621153454 62 306 12.0 19.0 0.00 0.00 0.00 52 1027.8
20180621152957 63 308 11.0 19.0 0.00 0.00 0.00 51 1027.8
20180621152454 63 312 10.0 19.0 0.00 0.00 0.00 55 1027.8
20180621151954 63 313 11.0 19.0 0.00 0.00 0.00 53 1027.7
20180621151456 63 305 10.0 19.0 0.00 0.00 0.00 53 1027.6
20180621150954 63 305 12.0 22.0 0.00 0.00 0.00 53 1027.4
20180621150454 63 310 12.0 22.0 0.00 0.00 0.00 53 1027.6
20180621145957 63 308 11.0 19.0 0.00 0.00 0.00 55 1027.5
20180621145455 63 303 11.0 20.0 0.00 0.00 0.00 53 1027.5
20180621144954 62 305 11.0 20.0 0.00 0.00 0.00 54 1027.5
20180621144456 63 310 11.0 20.0 0.00 0.00 0.00 53 1027.4
20180621143954 63 309 11.0 21.0 0.00 0.00 0.00 54 1027.4
20180621143454 63 303 12.0 21.0 0.00 0.00 0.00 56 1027.3
20180621142957 63 301 12.0 20.0 0.00 0.00 0.00 54 1027.3
20180621142454 63 303 12.0 19.0 0.00 0.00 0.00 53 1027.3
20180621141954 63 305 12.0 22.0 0.00 0.00 0.00 53 1027.2
20180621141457 62 309 11.0 22.0 0.00 0.00 0.00 55 1027.2
20180621140954 62 311 11.0 20.0 0.00 0.00 0.00 54 1027.2
20180621140453 62 307 12.0 20.0 0.00 0.00 0.00 54 1027.2
20180621135957 63 304 12.0 22.0 0.00 0.00 0.00 53 1027.2
20180621135454 64 308 13.0 23.0 0.00 0.00 0.00 52 1027.0
20180621134954 64 301 13.0 23.0 0.00 0.00 0.00 53 1026.8
20180621134457 64 303 13.0 22.0 0.00 0.00 0.00 50 1026.9
20180621133953 64 307 12.0 22.0 0.00 0.00 0.00 52 1026.9
20180621133454 63 300 12.0 24.0 0.00 0.00 0.00 52 1026.9
20180621132957 62 305 12.0 25.0 0.00 0.00 0.00 53 1026.9
20180621132454 62 312 13.0 25.0 0.00 0.00 0.00 53 1026.8
20180621131954 63 307 13.0 20.0 0.00 0.00 0.00 53 1026.9
20180621131457 62 297 13.0 21.0 0.00 0.00 0.00 54 1026.9
20180621130957 62 304 11.0 21.0 0.00 0.00 0.00 52 1026.8
20180621130453 63 312 11.0 18.0 0.00 0.00 0.00 52 1026.7
20180621125957 62 306 11.0 18.0 0.00 0.00 0.00 56 1026.6
20180621125454 62 307 11.0 19.0 0.00 0.00 0.00 55 1026.6
20180621124956 62 305 12.0 21.0 0.00 0.00 0.00 56 1026.6
20180621124456 62 300 11.0 21.0 0.00 0.00 0.00 55 1026.7
20180621123954 63 303 10.0 20.0 0.00 0.00 0.00 56 1026.6
20180621123454 63 308 10.0 19.0 0.00 0.00 0.00 57 1026.6
20180621122956 62 304 10.0 19.0 0.00 0.00 0.00 56 1026.6
20180621122454 61 297 10.0 19.0 0.00 0.00 0.00 59 1026.6
20180621121954 60 298 11.0 19.0 0.00 0.00 0.00 58 1026.6
20180621121456 61 297 11.0 20.0 0.00 0.00 0.00 56 1026.5
20180621120954 62 300 11.0 20.0 0.00 0.00 0.00 57 1026.6
20180621120453 62 306 9.0 17.0 0.00 0.01 0.00 56 1026.5
20180621115957 63 308 10.0 20.0 0.00 0.01 0.00 56 1026.4
20180621115457 62 302 11.0 20.0 0.00 0.01 0.00 55 1026.4
20180621114953 62 306 10.0 18.0 0.00 0.01 0.00 53 1026.3
20180621114457 62 316 11.0 18.0 0.00 0.01 0.00 53 1026.2
20180621113954 62 312 11.0 19.0 0.00 0.01 0.00 54 1026.2
20180621113454 61 304 12.0 19.0 0.00 0.01 0.00 52 1026.2
20180621112957 62 298 11.0 19.0 0.00 0.01 0.00 54 1026.2
20180621112454 63 298 11.0 20.0 0.00 0.01 0.00 54 1026.1
20180621111953 62 301 11.0 20.0 0.00 0.01 0.00 51 1026.1
20180621111457 62 309 9.0 16.0 0.00 0.01 0.00 56 1026.1
20180621110954 61 316 10.0 19.0 0.00 0.01 0.00 51 1026.1
20180621110453 61 315 10.0 20.0 0.00 0.01 0.00 51 1026.1
20180621105957 61 307 9.0 20.0 0.00 0.01 0.00 51 1026.1
20180621105453 61 301 10.0 18.0 0.00 0.01 0.00 51 1026.0
20180621104954 61 303 10.0 19.0 0.00 0.01 0.00 53 1025.9
20180621104457 61 306 10.0 19.0 0.00 0.01 0.00 54 1025.9
20180621103953 60 309 10.0 17.0 0.00 0.01 0.00 54 1025.8
20180621103454 59 309 8.0 17.0 0.00 0.01 0.00 56 1025.9
20180621102956 59 302 8.0 16.0 0.00 0.01 0.00 57 1025.9
20180621102453 60 313 9.0 17.0 0.00 0.01 0.00 54 1025.7
20180621101954 60 321 8.0 17.0 0.00 0.01 0.00 54 1025.7
20180621101456 60 317 7.0 17.0 0.00 0.01 0.00 53 1025.6
20180621100954 60 322 8.0 17.0 0.00 0.01 0.00 55 1025.5
20180621100453 59 319 11.0 17.0 0.00 0.01 0.00 57 1025.3
20180621095956 59 313 10.0 20.0 0.00 0.01 0.00 57 1025.3
20180621095454 59 315 9.0 20.0 0.00 0.01 0.00 56 1025.4
20180621094953 58 315 10.0 20.0 0.00 0.01 0.00 58 1025.3
20180621094457 58 316 10.0 20.0 0.00 0.01 0.00 58 1025.3
20180621093953 58 325 8.0 19.0 0.00 0.01 0.00 58 1025.3
20180621093454 58 332 8.0 15.0 0.00 0.01 0.00 58 1025.4
20180621092956 57 324 8.0 14.0 0.00 0.01 0.00 58 1025.3
20180621092453 58 319 8.0 14.0 0.00 0.01 0.00 58 1025.3
20180621091954 58 312 10.0 19.0 0.00 0.01 0.00 57 1025.0
20180621091456 57 309 11.0 20.0 0.00 0.01 0.00 58 1024.9
20180621090953 58 319 11.0 20.0 0.00 0.01 0.00 57 1024.7
20180621090454 58 322 11.0 20.0 0.00 0.01 0.00 58 1024.7
20180621085956 58 312 11.0 20.0 0.00 0.01 0.00 59 1024.7
20180621085454 57 307 11.0 20.0 0.00 0.01 0.00 61 1024.7
20180621084953 57 308 10.0 20.0 0.00 0.01 0.00 61 1024.8
20180621084456 56 312 9.0 15.0 0.00 0.01 0.00 61 1024.9
20180621083954 56 312 10.0 16.0 0.00 0.01 0.00 61 1024.8
20180621083453 57 313 9.0 17.0 0.00 0.01 0.00 60 1024.9
20180621082956 57 320 8.0 17.0 0.00 0.01 0.00 61 1024.7
20180621082454 57 334 9.0 17.0 0.00 0.01 0.00 61 1024.6
20180621081953 57 344 10.0 17.0 0.00 0.01 0.00 60 1024.6
20180621081455 57 342 10.0 17.0 0.00 0.01 0.00 59 1024.6
20180621080953 57 330 10.0 17.0 0.00 0.01 0.00 60 1024.5
20180621080453 57 318 9.0 18.0 0.00 0.01 0.00 60 1024.5
20180621075956 57 313 9.0 18.0 0.00 0.01 0.00 61 1024.5
20180621075453 56 315 11.0 18.0 0.00 0.01 0.00 60 1024.6
20180621074953 56 321 10.0 18.0 0.00 0.01 0.00 59 1024.5
20180621074456 56 324 9.0 17.0 0.00 0.01 0.00 61 1024.5
20180621073953 56 326 10.0 17.0 0.00 0.01 0.00 63 1024.3
20180621073453 56 327 10.0 17.0 0.00 0.01 0.00 62 1024.4
20180621072956 56 329 10.0 18.0 0.00 0.01 0.00 63 1024.3
20180621072453 55 336 10.0 19.0 0.00 0.01 0.00 62 1024.2
20180621071953 55 330 9.0 20.0 0.00 0.01 0.00 64 1024.2
20180621071456 55 310 10.0 20.0 0.00 0.01 0.00 65 1024.1
20180621070954 54 294 10.0 17.0 0.00 0.01 0.00 73 1024.1
20180621070453 54 300 9.0 15.0 0.00 0.01 0.00 73 1023.9
20180621065956 54 306 8.0 14.0 0.00 0.01 0.00 73 1023.9
20180621065453 54 307 9.0 15.0 0.00 0.01 0.00 73 1023.9
20180621064953 54 308 9.0 15.0 0.00 0.01 0.00 73 1023.8
20180621064455 54 307 7.0 15.0 0.00 0.01 0.00 73 1023.8
20180621063953 53 305 7.0 17.0 0.00 0.01 0.00 74 1023.8
20180621063453 53 306 8.0 17.0 0.00 0.01 0.00 74 1023.7
20180621062956 53 306 8.0 16.0 0.00 0.01 0.00 74 1023.7
20180621062453 52 310 8.0 15.0 0.00 0.01 0.00 74 1023.7
20180621061954 52 313 8.0 15.0 0.00 0.01 0.00 74 1023.8
20180621061456 52 304 9.0 17.0 0.00 0.01 0.00 74 1023.6
20180621060953 52 299 10.0 17.0 0.00 0.01 0.00 74 1023.4
20180621060453 52 304 9.0 17.0 0.00 0.01 0.00 74 1023.4
20180621055956 52 308 9.0 18.0 0.00 0.01 0.00 75 1023.5
20180621055453 52 301 10.0 18.0 0.00 0.01 0.00 75 1023.4
20180621054953 52 301 9.0 18.0 0.00 0.01 0.00 75 1023.2
20180621054456 52 303 9.0 20.0 0.00 0.01 0.00 76 1023.2
20180621053953 52 299 9.0 20.0 0.00 0.01 0.00 76 1023.0
20180621053453 52 298 9.0 16.0 0.00 0.01 0.00 76 1023.0
20180621052956 51 299 8.0 15.0 0.00 0.01 0.00 77 1023.0
20180621052453 51 300 8.0 16.0 0.00 0.01 0.00 77 1022.8
20180621051953 51 296 9.0 16.0 0.00 0.01 0.00 77 1022.5
20180621051456 51 293 9.0 16.0 0.00 0.01 0.00 77 1022.6
20180621050953 51 295 9.0 17.0 0.00 0.01 0.00 77 1022.5
20180621050453 51 296 9.0 17.0 0.00 0.01 0.00 76 1022.5
20180621045956 51 292 9.0 20.0 0.00 0.01 0.00 76 1022.3
20180621045452 51 288 9.0 20.0 0.00 0.01 0.00 76 1022.3
20180621044953 51 285 9.0 14.0 0.00 0.01 0.00 75 1022.2
20180621044455 51 289 9.0 15.0 0.00 0.01 0.00 76 1022.3
20180621043953 51 291 9.0 15.0 0.00 0.01 0.00 76 1022.3
20180621043453 51 281 9.0 19.0 0.00 0.01 0.00 76 1022.2
20180621042955 51 280 9.0 19.0 0.00 0.01 0.00 75 1022.2
20180621042453 51 283 8.0 16.0 0.00 0.01 0.00 76 1022.2
20180621041952 51 291 7.0 14.0 0.00 0.01 0.00 76 1022.3
20180621041456 51 300 6.0 13.0 0.00 0.01 0.00 76 1022.3
20180621040953 51 289 6.0 11.0 0.00 0.01 0.00 76 1022.4
20180621040453 51 287 7.0 13.0 0.00 0.01 0.00 76 1022.2
20180621035956 51 288 9.0 15.0 0.00 0.01 0.00 76 1022.1
20180621035453 51 286 9.0 16.0 0.00 0.01 0.00 76 1022.2
20180621034953 51 292 8.0 16.0 0.00 0.01 0.00 76 1022.1
20180621034455 51 295 8.0 14.0 0.00 0.01 0.00 76 1022.0
20180621033953 51 291 8.0 14.0 0.00 0.01 0.00 76 1021.9
20180621033453 51 292 8.0 14.0 0.00 0.01 0.00 76 1022.0
20180621032956 51 297 9.0 16.0 0.00 0.01 0.00 76 1021.9
20180621032452 51 301 10.0 19.0 0.00 0.01 0.00 76 1021.9
20180621031953 51 307 10.0 19.0 0.00 0.01 0.00 77 1022.0
20180621031455 51 310 9.0 19.0 0.00 0.01 0.00 78 1021.9
20180621030955 51 307 8.0 18.0 0.00 0.01 0.00 78 1021.7
20180621030453 51 305 9.0 18.0 0.00 0.01 0.00 77 1021.7
20180621025955 51 301 9.0 18.0 0.00 0.01 0.00 78 1021.5
20180621025453 52 296 10.0 18.0 0.00 0.01 0.00 77 1021.4
20180621024952 52 298 10.0 18.0 0.00 0.01 0.00 77 1021.4
20180621024455 52 303 10.0 17.0 0.00 0.01 0.00 77 1021.5
20180621023953 52 303 9.0 17.0 0.00 0.01 0.00 77 1021.5
20180621023452 52 302 9.0 18.0 0.00 0.01 0.00 77 1021.4
20180621022956 52 307 9.0 18.0 0.00 0.01 0.00 77 1021.4
20180621022453 53 305 9.0 17.0 0.00 0.01 0.00 77 1021.5
20180621021953 53 302 9.0 16.0 0.00 0.01 0.00 76 1021.4
20180621021456 53 302 9.0 15.0 0.00 0.01 0.00 76 1021.3
20180621020953 53 301 10.0 18.0 0.00 0.01 0.00 76 1021.3
20180621020452 53 304 11.0 19.0 0.00 0.01 0.00 76 1021.3
20180621015956 53 305 11.0 22.0 0.00 0.01 0.00 76 1021.3
20180621015452 53 304 11.0 22.0 0.00 0.01 0.00 77 1021.2
20180621014953 53 305 12.0 20.0 0.00 0.01 0.00 77 1021.3
20180621014455 53 302 12.0 18.0 0.00 0.01 0.00 78 1021.2
20180621013952 52 297 11.0 20.0 0.00 0.01 0.00 78 1021.1
20180621013453 52 295 10.0 20.0 0.00 0.01 0.00 79 1021.0
20180621012955 52 294 10.0 20.0 0.00 0.01 0.00 79 1021.0
20180621012453 52 295 9.0 20.0 0.00 0.01 0.00 79 1020.9
20180621011952 52 292 9.0 15.0 0.00 0.01 0.00 79 1020.9
20180621011455 52 290 9.0 15.0 0.00 0.01 0.00 79 1020.9
20180621010953 52 292 8.0 15.0 0.00 0.01 0.00 79 1020.9
20180621010453 52 293 8.0 16.0 0.00 0.01 0.00 78 1020.9
20180621005955 53 293 9.0 17.0 0.00 0.01 0.00 78 1021.0
20180621005452 53 291 10.0 17.0 0.00 0.01 0.00 78 1020.9
20180621004953 52 287 9.0 16.0 0.00 0.01 0.00 78 1020.9
20180621004455 52 285 9.0 17.0 0.00 0.01 0.00 78 1020.8
20180621003952 52 285 10.0 18.0 0.00 0.01 0.00 78 1020.8
20180621003453 52 286 9.0 18.0 0.00 0.01 0.00 79 1020.8
20180621002955 52 285 7.0 13.0 0.00 0.01 0.00 79 1020.8
20180621002453 52 285 6.0 11.0 0.00 0.01 0.00 80 1020.8
20180621001952 51 284 5.0 11.0 0.00 0.01 0.00 79 1020.9
20180621001455 51 281 5.0 11.0 0.00 0.01 0.00 79 1020.8
20180621000953 51 272 4.0 11.0 0.00 0.01 0.00 79 1020.8
20180621000452 51 269 4.0 10.0 0.00 0.01 0.00 79 1020.9
20180620235956 51 274 4.0 10.0 0.00 0.01 0.00 79 1020.9
20180620235453 52 271 3.0 9.0 0.00 0.01 0.00 79 1021.0
20180620234953 52 266 3.0 8.0 0.00 0.01 0.00 79 1020.9
20180620234455 52 265 4.0 8.0 0.00 0.01 0.00 78 1021.0
20180620233952 52 267 4.0 9.0 0.00 0.01 0.00 78 1021.0
20180620233453 51 276 4.0 10.0 0.00 0.01 0.00 78 1021.0
20180620232955 51 280 4.0 10.0 0.00 0.01 0.00 78 1020.9
20180620232452 52 273 3.0 9.0 0.00 0.01 0.00 77 1021.0
20180620231953 52 268 2.0 8.0 0.00 0.01 0.00 77 1020.9
20180620231455 52 277 3.0 8.0 0.00 0.01 0.00 76 1020.8
20180620230952 52 277 4.0 8.0 0.00 0.01 0.00 76 1020.8
20180620230453 52 273 4.0 8.0 0.00 0.01 0.00 75 1020.7
20180620225959 53 276 4.0 8.0 0.00 0.01 0.00 75 1020.7
20180620225453 53 283 4.0 9.0 0.00 0.01 0.01 74 1020.7
20180620224953 53 287 4.0 9.0 0.00 0.01 0.01 74 1020.7
20180620224455 53 289 5.0 9.0 0.00 0.01 0.01 73 1020.8
20180620223952 53 290 6.0 11.0 0.00 0.01 0.01 73 1020.6
20180620223452 54 292 6.0 11.0 0.00 0.01 0.01 72 1020.6
20180620222955 54 292 6.0 11.0 0.00 0.01 0.01 72 1020.6
20180620222452 54 293 5.0 10.0 0.00 0.01 0.01 72 1020.7
20180620221952 54 299 4.0 10.0 0.00 0.01 0.01 72 1020.7
20180620221456 54 301 5.0 13.0 0.00 0.01 0.01 71 1020.7
20180620220952 54 295 6.0 13.0 0.00 0.01 0.01 71 1020.7
20180620220452 54 291 6.0 12.0 0.00 0.01 0.01 72 1020.6
20180620215955 54 291 5.0 12.0 0.00 0.01 0.01 72 1020.7
20180620215452 54 283 4.0 8.0 0.00 0.01 0.01 72 1020.7
20180620214953 55 283 4.0 8.0 0.00 0.01 0.01 72 1020.7
20180620214455 55 293 4.0 8.0 0.00 0.01 0.01 72 1020.7
20180620213952 55 299 4.0 9.0 0.00 0.01 0.01 71 1020.7
20180620213452 55 303 5.0 10.0 0.00 0.01 0.01 71 1020.7
20180620212955 55 307 5.0 10.0 0.00 0.01 0.01 70 1020.7
20180620212452 55 307 6.0 10.0 0.00 0.01 0.01 70 1020.7
20180620211953 55 302 6.0 10.0 0.00 0.01 0.01 70 1020.7
20180620211455 55 301 6.0 12.0 0.00 0.01 0.01 70 1020.7
20180620210952 55 304 6.0 12.0 0.00 0.01 0.01 70 1020.5
20180620210452 55 300 6.0 13.0 0.00 0.01 0.01 70 1020.5
20180620205955 55 299 8.0 13.0 0.00 0.01 0.01 69 1020.6
20180620205452 55 304 7.0 13.0 0.00 0.01 0.01 69 1020.5
20180620204952 55 305 7.0 13.0 0.00 0.01 0.01 69 1020.4
20180620204455 55 305 7.0 13.0 0.00 0.01 0.01 69 1020.5
20180620203952 55 306 6.0 12.0 0.00 0.01 0.01 69 1020.4
20180620203453 55 304 7.0 12.0 0.00 0.01 0.01 68 1020.4
20180620202955 56 304 8.0 14.0 0.00 0.01 0.01 67 1020.3
20180620202452 56 306 7.0 14.0 0.00 0.01 0.01 67 1020.1
20180620201953 56 307 7.0 13.0 0.00 0.01 0.01 67 1020.2
20180620201455 56 310 7.0 13.0 0.00 0.01 0.01 66 1020.2
20180620200952 56 312 6.0 13.0 0.00 0.01 0.01 66 1020.1
20180620200453 56 312 7.0 14.0 0.00 0.01 0.01 65 1020.1
20180620195955 56 308 7.0 14.0 0.00 0.01 0.01 65 1020.0
20180620195452 56 304 7.0 14.0 0.00 0.01 0.01 64 1020.0
20180620194952 57 303 8.0 14.0 0.00 0.01 0.01 64 1020.2
20180620194455 57 306 7.0 15.0 0.00 0.01 0.01 63 1020.0
20180620193951 57 310 7.0 15.0 0.00 0.01 0.01 63 1020.0
20180620193452 57 311 8.0 14.0 0.00 0.01 0.01 62 1019.9
20180620192955 57 311 9.0 17.0 0.00 0.01 0.01 61 1019.8
20180620192452 57 307 9.0 17.0 0.00 0.01 0.01 61 1019.7
20180620191952 57 306 9.0 17.0 0.00 0.01 0.01 60 1019.7
20180620191454 58 305 10.0 17.0 0.00 0.01 0.01 60 1019.6
20180620190952 58 303 8.0 16.0 0.00 0.01 0.01 60 1019.6
20180620190452 58 302 8.0 14.0 0.00 0.01 0.01 60 1019.5
20180620185955 58 301 8.0 18.0 0.00 0.01 0.01 60 1019.5
20180620185452 58 308 8.0 18.0 0.00 0.01 0.01 60 1019.4
20180620184952 58 314 8.0 14.0 0.00 0.01 0.01 60 1019.3
20180620184455 58 311 9.0 17.0 0.00 0.01 0.01 59 1019.4
20180620183952 58 309 11.0 17.0 0.00 0.01 0.01 58 1019.4
20180620182955 58 306 8.0 15.0 0.00 0.01 0.01 59 1019.3
20180620182451 58 301 9.0 19.0 0.00 0.01 0.01 60 1019.4
20180620181952 59 298 10.0 19.0 0.00 0.01 0.01 60 1019.4
20180620181454 59 293 11.0 17.0 0.00 0.01 0.01 60 1019.3
20180620180952 59 292 11.0 21.0 0.00 0.01 0.01 60 1019.3
20180620180451 59 295 10.0 21.0 0.00 0.01 0.01 61 1019.3
20180620175955 59 293 8.0 15.0 0.00 0.01 0.01 64 1019.2
20180620175452 60 294 8.0 17.0 0.00 0.01 0.01 65 1019.2
20180620174952 60 294 10.0 17.0 0.00 0.01 0.01 65 1019.2
20180620174455 60 303 11.0 16.0 0.00 0.01 0.01 64 1019.2
20180620173951 60 312 11.0 18.0 0.00 0.01 0.01 65 1019.1
20180620173452 60 312 11.0 19.0 0.00 0.01 0.01 65 1019.1
20180620172955 60 302 11.0 19.0 0.00 0.01 0.01 66 1019.1
20180620172451 60 293 11.0 19.0 0.00 0.01 0.01 66 1019.1
20180620171952 60 292 11.0 20.0 0.00 0.01 0.01 65 1019.1
20180620171454 60 299 10.0 20.0 0.00 0.01 0.01 65 1019.1
20180620170951 60 308 10.0 19.0 0.00 0.01 0.01 67 1019.0
20180620170452 60 305 10.0 17.0 0.00 0.01 0.01 66 1018.9
20180620165954 60 301 10.0 18.0 0.00 0.01 0.01 66 1018.9
20180620165452 60 307 10.0 18.0 0.00 0.01 0.01 66 1018.9
20180620164951 60 312 9.0 18.0 0.00 0.01 0.01 67 1018.8
20180620164454 60 309 9.0 16.0 0.00 0.01 0.01 67 1018.8
20180620163951 60 309 11.0 19.0 0.00 0.01 0.01 67 1018.8
20180620163452 60 310 11.0 19.0 0.00 0.01 0.01 66 1018.7
20180620162954 61 310 10.0 18.0 0.00 0.01 0.01 65 1018.7
20180620162452 62 304 10.0 16.0 0.00 0.01 0.01 65 1018.7
20180620161952 62 311 10.0 15.0 0.00 0.01 0.01 64 1018.6
20180620161454 62 309 10.0 19.0 0.00 0.01 0.01 65 1018.6